Terminal Aerodrome Forecast
Issued by NWS

Home | Current Version | Previous Version | Text Only | Print | Product List | Glossary On
Versions: 1 2 3 4 5 6 7 8 9 10 11 12 13 14 15 16 17 18 19 20 21 22 23 24 25
000
FTUS43 KMQT 271735
TAFSAW
TAF
KSAW 271735Z 2718/2818 09005KT P6SM BKN150
     FM272100 09006KT P6SM -SHRA VCTS OVC080CB
     FM272300 10006KT P6SM OVC070
     FM280400 13005KT 3SM -SHRA BR OVC020
     FM280800 17006KT 1SM BR OVC003
     FM281300 16006KT P6SM OVC005
     FM281500 18007KT P6SM OVC015=

USA.gov is the U.S. government's official web portal to all federal, state and local government web resources and services.